sat.trackr.live / text

‹ back to catalog

STARLINK-36576

NORAD 67534 · 2026-014C

PAYLOAD ACTIVE UNKNOWN

§ Identity

Operator
Country
US
Launch date
2026-01-22
Launch site
AFWTR
Launch vehicle
Mass (kg)
RCS (m²)

Purposes: comms

External: N2YO · Heavens-Above · Gunter

§ Orbital elements

Epoch: 2026-05-25T02:36:21.045024Z

Period
93.91 min
Inclination
97.2871°
Eccentricity
0.0001124
Mean motion
15.33459542 rev/d
Perigee alt
464.7 km
Apogee alt
466.3 km
Semi-major
6,843.6 km
B*
6.0069e-4
RAAN
32.1371°
Arg perigee
73.3182°
Mean anomaly
286.8184°
Rev number
2,049

§ Raw data

STARLINK-365761 67534U 26014C   26145.10857691  .00019376  00000+0  60069-3 0  99922 67534  97.2871  32.1371 0001124  73.3182 286.8184 15.33459542 20493

JSON: /api/v1/satellites/67534 · /tle

For live sub-satellite position, see the globe view (requires WebGL).

§ Visibility from observer

Set your observer location to see the next 7 days of passes ≥ 10°. The values pass through the URL so the page stays shareable.

No JS? Fill the form by hand. The geolocation button needs JavaScript.